SCP
0 0 0 0 0 0 0 0 0 0 0 0 0 0 0 0 0 0 0 0 0 0 0 0 0 0 0 0 0 0 0 0 0 0 0 0 0 0 0 0 0 0 0
0 0 0 0 0 0 0 0 0 0 0 0 0 0 0 0 0 0 0 0 0 0 0 0 0 0 0 0 0 0 0 0 0 0 0 0 0 0 0 0 0 0 0
0 0 0 0 0 0 0 0 0 0 0 0 0 0 0 0 0 0 0 0 0 0 0 0 0 0 0 0 0 0 0 0 0 0 0 0 0 0 0 0 0 0 0
0 0 0 0 0 0 0 0 0 0 0 0 0 0 0 0 0 0 0 0 0 0 0 0 0 0 0 0 0 0 0 0 0 0 0 0 0 0 0 0 0 0 0
0 0 0 0 0 0 0 0 0 0 0 0 0 0 0 0 0 0 0 0 0 0 0 0 0 0 0 0 0 0 0 0 0 0 0 0 0 0 0 0 0 0 0
0 0 0 0 0 0 0 0 0 0 0 0 0 0 0 0 0 0 0 0 0 0 0 0 0 0 0 0 0 0 0 0 0 0 0 0 0 0 0 0 0 0 0
0 0 0 0 0 0 0 0 0 0 0 0 0 0 0 0 0 0 0 0 0 0 0 0 0 0 0 0 0 0 0 0 0 0 0 0 0 0 0 0 0 0 0
0 0 0 0 0 0 0 0 0 0 0 0 0 0 0 0 0 0 0 0 0 0 0 0 0 0 0 0 0 0 0 0 0 0 0 0 0 0 0 0 0 0 0
0 0 0 0 0 0 0 0 0 0 0 0 0 0 0 0 0 0 0 0 0 0 0 0 0 0 0 0 0 0 0 0 0 0 0 0 0 0 0 0 0 0 0
0 0 0 0 0 0 0 0 0 0 0 0 0 0 0 0 0 0 0 0 0 0 0 0 0 0 0 0 0 0 0 0 0 0 0 0 0 0 0 0 0 0 0
0 0 0 0 0 0 0 0 0 0 0 0 0 0 0 0 0 0 0 0 0 0 0 0 0 0 0 0 0 0 0 0 0 0 0 0 0 0 0 0 0 0 0
0 0 0 0 0 0 0 0 0 0 0 0 0 0 0 0 0 0 0 0 0 0 0 0 0 0 0 0 0 0 0 0 0 0 0 0 0 0 0 0 0 0 0
0 0 0 0 0 0 0 0 0 0 0 0 0 0 0 0 0 0 0 0 0 0 0 0 0 0 0 0 0 0 0 0 0 0 0 0 0 0 0 0 0 0 0
0 0 0 0 0 0 0 0 0 0 0 0 0 0 0 0 0 0 0 0 0 0 0 0 0 0 0 0 0 0 0 0 0 0 0 0 0 0 0 0 0 0 0
0 0 0 0 0 0 0 0 0 0 0 0 0 0 0 0 0 0 0 0 0 0 0 0 0 0 0 0 0 0 0 0 0 0 0 0 0 0 0 0 0 0 0
0 0 0 0 0 0 0 0 0 0 0 0 0 0 0 0 0 0 0 0 0 0 0 0 0 0 0 0 0 0 0 0 0 0 0 0 0 0 0 0 0 0 0
0 0 0 0 0 0 0 0 0 0 0 0 0 0 0 0 0 0 0 0 0 0 0 0 0 0 0 0 0 0 0 0 0 0 0 0 0 0 0 0 0 0 0
0 0 0 0 0 0 0 0 0 0 0 0 0 0 0 0 0 0 0 0 0 0 0 0 0 0 0 0 0 0 0 0 0 0 0 0 0 0 0 0 0 0 0
0 0 0 0 0 0 0 0 0 0 0 0 0 0 0 0 0 0 0 0 0 0 0 0 0 0 0 0 0 0 0 0 0 0 0 0 0 0 0 0 0 0 0
0 0 0 0 0 0 0 0 0 0 0 0 0 0 0 0 0 0 0 0 0 0 0 0 0 0 0 0 0 0 0 0 0 0 0 0 0 0 0 0 0 0 0
0 0 0 0 0 0 0 0 0 0 0 0 0 0 0 0 0 0 0 0 0 0 0 0 0 0 0 0 0 0 0 0 0 0 0 0 0 0 0 0 0 0 0
0 0 0 0 0 0 0 0 0 0 0 0 0 0 0 0 0 0 0 0 0 0 0 0 0 0 0 0 0 0 0 0 0 0 0 0 0 0 0 0 0 0 0
0 0 0 0 0 0 0 0 0 0 0 0 0 0 0 0 0 0 0 0 0 0 0 0 0 0 0 0 0 0 0 0 0 0 0 0 0 0 0 0 0 0 0
0 0 0 0 0 0 0 0 0 0 0 0 0 0 0 0 0 0 0 0 0 0 0 0 0 0 0 0 0 0 0 0 0 0 0 0 0 0 0 0 0 0 0
0 0 0 0 0 0 0 0 0 0 0 0 0 0 0 0 0 0 0 0 0 0 0 0 0 0 0 0 0 0 0 0 0 0 0 0 0 0 0 0 0 0 0
0 0 0 0 0 0 0 0 0 0 0 0 0 0 0 0 0 0 0 0 0 0 0 0 0 0 0 0 0 0 0 0 0 0 0 0 0 0 0 0 0 0 0
Wind_Speed_500mb
69 68 67 66 65 65 62 62 59 58 54 48 42 40 40 37 34 33 30 24 19 14 12 11 13 14 17 22 26 31 34 37 41 44 50 55 60 67 70 73 75 78 77
63 65 67 67 69 68 67 59 59 54 55 55 48 45 43 38 35 30 25 21 16 15 12 12 14 16 20 23 25 26 30 37 42 47 51 56 62 67 72 77 78 79 80
59 59 58 59 60 62 62 60 57 58 56 50 48 42 43 39 35 32 26 20 16 12 12 13 16 19 19 20 22 24 28 33 39 46 52 57 61 67 73 76 80 80 78
48 49 47 48 50 54 61 61 62 62 55 49 48 46 43 40 36 29 22 16 15 13 14 15 17 16 16 16 18 23 28 33 40 46 52 57 62 65 69 77 84 81 83
48 46 44 44 48 58 61 64 62 58 51 51 52 50 45 39 32 25 19 16 16 15 14 15 14 14 12 14 18 24 31 37 42 47 51 55 58 64 68 73 77 83 85
49 47 47 49 57 62 65 64 62 58 56 55 51 45 41 36 29 22 18 18 16 14 14 14 12 9 12 16 22 29 35 38 43 45 46 47 51 55 61 67 69 75 85
49 50 53 56 61 65 65 63 61 62 60 56 50 45 39 32 26 21 18 17 15 15 14 12 10 12 15 20 27 34 37 39 41 42 41 41 47 50 58 63 61 61 63
55 57 59 62 65 66 64 63 64 61 57 53 48 42 35 29 24 19 17 16 17 16 15 13 12 14 18 25 29 31 33 37 39 39 39 40 42 46 47 52 55 58 59
63 63 63 64 67 67 68 67 64 60 56 50 43 38 34 28 23 18 18 20 20 18 18 16 13 15 20 23 26 29 33 35 39 43 43 40 39 40 42 46 47 51 58
69 68 66 66 67 67 68 67 63 57 50 47 43 39 33 26 18 19 24 24 24 22 19 16 16 19 21 25 28 31 34 36 39 43 45 45 39 38 38 38 41 42 45
69 68 70 70 70 68 66 63 60 56 53 49 43 37 30 20 23 27 29 28 26 23 20 19 21 23 25 28 30 29 34 38 40 42 44 47 42 43 41 38 36 39 44
70 73 75 73 72 69 66 63 60 57 54 49 42 34 25 29 27 37 32 29 28 26 24 22 23 25 27 29 29 30 31 34 40 46 50 53 51 44 43 43 39 40 40
75 77 77 75 72 70 67 65 64 60 55 48 37 29 36 26 45 38 35 32 32 30 28 25 26 28 29 29 29 31 31 33 40 47 51 54 53 51 48 46 44 42 41
78 80 78 77 75 71 69 67 65 62 55 39 34 45 28 46 49 44 40 38 38 36 32 30 31 32 33 34 34 34 34 36 40 44 48 51 53 51 50 48 53 47 44
75 77 77 77 75 74 73 71 65 54 40 40 52 36 43 57 51 44 44 42 42 42 37 36 37 36 36 36 37 37 37 38 40 43 46 49 51 50 48 45 49 49 45
71 73 74 74 76 76 75 70 61 50 56 59 47 49 57 56 51 51 49 46 50 49 44 43 42 41 41 41 42 42 41 42 44 46 46 48 51 50 49 45 44 46 44
60 66 71 74 72 70 70 71 70 67 65 64 59 52 60 55 53 54 54 53 59 53 50 48 47 45 45 45 46 47 47 45 46 47 48 48 48 47 46 45 43 45 41
55 61 65 68 75 78 79 79 70 75 74 65 50 64 62 59 58 57 56 63 63 55 54 51 50 51 49 49 48 48 45 45 47 48 47 44 43 45 44 42 40 42 40
53 60 66 70 74 77 76 74 73 71 70 66 63 60 62 60 58 59 61 66 58 56 55 54 54 53 52 51 50 49 47 46 47 47 44 42 40 40 40 42 41 39 39
44 49 55 60 66 69 70 73 74 74 73 72 71 65 64 64 64 63 63 61 57 56 57 57 56 56 54 52 50 48 47 45 47 46 43 42 40 40 41 41 40 42 37
37 44 50 57 62 66 70 74 75 76 76 75 72 66 65 69 64 65 67 67 64 63 61 60 59 58 55 52 50 48 48 43 44 46 42 40 40 39 41 42 43 42 40
34 41 48 54 59 66 70 72 73 75 76 76 74 70 72 75 72 73 74 69 67 68 65 64 62 58 54 52 50 50 47 43 42 46 43 41 41 39 41 42 42 43 41
34 40 47 54 59 64 68 71 74 76 77 76 75 74 74 81 81 75 72 67 69 71 66 67 64 58 53 52 52 51 49 42 43 47 45 43 42 42 43 43 43 43 42
38 42 47 51 57 64 68 71 74 75 76 78 75 78 81 82 79 76 76 71 71 70 68 68 64 59 53 52 51 53 52 47 47 47 48 47 43 44 47 47 45 45 45
38 40 43 47 53 59 64 70 75 78 79 79 79 79 80 80 80 80 76 71 70 70 67 63 63 59 55 52 50 51 52 51 51 49 50 50 48 45 47 49 47 46 44
40 43 45 48 52 57 62 66 69 71 73 73 74 75 75 75 74 72 72 72 68 67 66 65 63 61 57 52 52 53 53 50 52 53 53 54 53 50 50 47 45 46 45
Wind_Direction_500mb
224 225 230 233 235 235 230 225 220 227 224 226 229 227 231 232 227 225 228 218 213 221 233 254 273 292 313 321 325 326 328 330 333 340 344 345 348 347 348 349 351 350 351
224 227 231 234 235 232 226 215 214 215 217 222 225 224 230 217 219 215 206 201 204 222 241 264 291 309 316 322 328 331 336 340 342 343 346 347 348 347 347 346 348 348 349
229 231 231 228 224 219 209 203 205 208 209 211 220 217 205 202 198 193 192 203 216 234 265 285 299 309 321 330 336 343 344 344 342 342 344 346 347 348 345 345 346 346 349
225 221 215 211 206 201 195 199 202 201 207 210 203 197 193 188 187 191 195 214 236 257 276 293 305 315 325 336 345 346 343 341 341 341 342 343 345 345 342 341 342 345 346
214 209 202 198 193 191 195 197 195 204 205 198 194 188 186 185 189 196 211 229 246 264 280 294 301 307 321 338 339 337 339 340 339 338 340 340 341 340 341 340 340 340 343
212 206 199 195 191 193 195 197 198 198 193 192 188 188 186 190 194 205 221 238 252 270 284 293 289 299 313 324 329 332 334 337 337 336 335 334 336 337 335 335 337 339 340
210 207 203 199 196 195 196 197 196 193 190 188 187 189 192 197 202 213 227 240 263 276 279 270 274 297 308 320 329 330 335 337 336 335 329 332 330 331 328 329 332 332 332
210 207 205 202 199 197 197 195 193 192 191 191 191 192 196 203 214 221 238 257 265 264 255 250 267 291 315 324 329 331 335 338 336 334 330 329 326 325 321 320 327 324 327
210 207 204 201 198 196 194 193 193 193 194 195 194 198 203 211 216 227 254 261 255 246 237 244 270 301 314 319 326 329 334 335 335 335 335 331 331 330 326 320 322 322 323
211 207 203 200 199 199 198 196 197 196 197 198 200 201 207 212 228 246 256 252 246 237 241 258 278 297 309 321 325 327 333 334 332 334 331 332 328 323 319 316 316 315 318
213 207 205 203 203 202 201 201 199 198 198 201 204 208 212 232 236 254 247 244 241 245 257 276 294 305 312 318 319 323 327 331 331 328 327 327 328 318 314 311 310 305 306
213 209 206 204 203 202 203 201 200 201 203 204 207 211 235 230 262 247 242 241 247 256 264 277 290 300 306 308 311 319 322 324 324 327 329 328 327 320 312 308 308 304 302
213 210 207 205 205 204 204 205 205 204 206 207 214 233 229 257 251 242 241 243 248 253 260 272 283 288 296 302 306 309 314 317 321 324 325 325 322 319 313 306 303 302 297
215 211 208 207 206 207 207 209 210 209 206 216 231 231 242 256 242 241 243 245 248 254 261 269 278 286 291 297 303 306 308 311 315 317 320 319 316 312 307 303 300 302 297
214 212 209 209 210 210 210 212 211 207 231 243 229 232 254 248 244 243 246 248 253 259 265 270 276 284 288 292 295 298 301 305 308 312 314 313 310 309 308 304 299 297 293
214 212 212 213 213 213 214 210 208 237 235 225 231 245 251 244 240 245 249 251 256 262 267 272 278 282 286 291 295 297 299 304 308 312 312 311 309 308 307 306 302 298 293
219 219 218 219 219 218 219 215 245 231 223 233 227 245 247 248 246 249 252 255 259 264 267 271 276 282 287 291 294 297 300 303 306 309 311 310 307 306 306 305 303 298 294
220 223 226 228 227 225 227 234 227 225 231 225 246 248 246 247 248 250 253 256 261 265 267 272 278 282 286 290 292 292 295 300 303 306 306 305 304 303 305 302 301 297 296
234 234 233 234 232 231 233 233 232 233 232 236 239 240 249 250 252 253 254 260 263 265 269 271 275 280 283 285 287 289 294 297 299 302 304 304 302 302 302 301 300 296 294
244 244 244 242 239 238 237 235 235 236 237 238 240 244 249 251 253 257 260 264 265 268 269 272 274 276 278 280 282 285 288 294 298 300 300 299 299 301 300 300 297 295 292
253 252 248 244 242 241 240 240 242 243 244 246 248 250 252 253 257 261 262 263 266 267 267 269 270 272 274 276 278 282 286 290 292 291 292 292 294 296 296 296 294 292 293
259 258 257 255 254 251 250 249 249 250 251 252 253 253 252 253 254 257 259 262 264 264 263 266 267 268 269 270 274 279 282 287 287 286 289 290 291 293 293 293 292 292 294
267 260 258 259 259 258 257 257 257 257 258 259 259 257 256 257 259 259 260 261 261 262 263 265 266 266 266 269 275 278 282 284 281 281 284 284 286 288 288 288 289 290 291
284 276 268 263 261 260 260 261 261 261 261 261 260 261 261 260 261 264 263 260 259 261 263 264 266 265 263 269 273 277 281 281 277 278 281 283 284 285 286 287 287 287 287
295 287 280 274 268 266 265 265 266 267 268 268 267 265 264 264 264 263 262 260 262 263 262 263 263 264 266 270 270 273 275 276 278 278 279 281 282 281 282 283 284 284 284
300 296 290 282 275 271 268 266 266 266 266 267 267 267 266 265 264 264 263 263 262 260 261 260 259 262 266 268 272 272 272 275 277 277 278 278 279 280 278 279 280 281 282
Wind_Speed_850mb
69 68 67 66 65 65 62 62 59 58 54 48 42 40 40 37 34 33 30 24 19 14 12 11 13 14 17 22 26 31 34 37 41 44 50 55 60 67 70 73 75 78 77
63 65 67 67 69 68 67 59 59 54 55 55 48 45 43 38 35 30 25 21 16 15 12 12 14 16 20 23 25 26 30 37 42 47 51 56 62 67 72 77 78 79 80
59 59 58 59 60 62 62 60 57 58 56 50 48 42 43 39 35 32 26 20 16 12 12 13 16 19 19 20 22 24 28 33 39 46 52 57 61 67 73 76 80 80 78
48 49 47 48 50 54 61 61 62 62 55 49 48 46 43 40 36 29 22 16 15 13 14 15 17 16 16 16 18 23 28 33 40 46 52 57 62 65 69 77 84 81 83
48 46 44 44 48 58 61 64 62 58 51 51 52 50 45 39 32 25 19 16 16 15 14 15 14 14 12 14 18 24 31 37 42 47 51 55 58 64 68 73 77 83 85
49 47 47 49 57 62 65 64 62 58 56 55 51 45 41 36 29 22 18 18 16 14 14 14 12 9 12 16 22 29 35 38 43 45 46 47 51 55 61 67 69 75 85
49 50 53 56 61 65 65 63 61 62 60 56 50 45 39 32 26 21 18 17 15 15 14 12 10 12 15 20 27 34 37 39 41 42 41 41 47 50 58 63 61 61 63
55 57 59 62 65 66 64 63 64 61 57 53 48 42 35 29 24 19 17 16 17 16 15 13 12 14 18 25 29 31 33 37 39 39 39 40 42 46 47 52 55 58 59
63 63 63 64 67 67 68 67 64 60 56 50 43 38 34 28 23 18 18 20 20 18 18 16 13 15 20 23 26 29 33 35 39 43 43 40 39 40 42 46 47 51 58
69 68 66 66 67 67 68 67 63 57 50 47 43 39 33 26 18 19 24 24 24 22 19 16 16 19 21 25 28 31 34 36 39 43 45 45 39 38 38 38 41 42 45
69 68 70 70 70 68 66 63 60 56 53 49 43 37 30 20 23 27 29 28 26 23 20 19 21 23 25 28 30 29 34 38 40 42 44 47 42 43 41 38 36 39 44
70 73 75 73 72 69 66 63 60 57 54 49 42 34 25 29 27 37 32 29 28 26 24 22 23 25 27 29 29 30 31 34 40 46 50 53 51 44 43 43 39 40 40
75 77 77 75 72 70 67 65 64 60 55 48 37 29 36 26 45 38 35 32 32 30 28 25 26 28 29 29 29 31 31 33 40 47 51 54 53 51 48 46 44 42 41
78 80 78 77 75 71 69 67 65 62 55 39 34 45 28 46 49 44 40 38 38 36 32 30 31 32 33 34 34 34 34 36 40 44 48 51 53 51 50 48 53 47 44
75 77 77 77 75 74 73 71 65 54 40 40 52 36 43 57 51 44 44 42 42 42 37 36 37 36 36 36 37 37 37 38 40 43 46 49 51 50 48 45 49 49 45
71 73 74 74 76 76 75 70 61 50 56 59 47 49 57 56 51 51 49 46 50 49 44 43 42 41 41 41 42 42 41 42 44 46 46 48 51 50 49 45 44 46 44
60 66 71 74 72 70 70 71 70 67 65 64 59 52 60 55 53 54 54 53 59 53 50 48 47 45 45 45 46 47 47 45 46 47 48 48 48 47 46 45 43 45 41
55 61 65 68 75 78 79 79 70 75 74 65 50 64 62 59 58 57 56 63 63 55 54 51 50 51 49 49 48 48 45 45 47 48 47 44 43 45 44 42 40 42 40
53 60 66 70 74 77 76 74 73 71 70 66 63 60 62 60 58 59 61 66 58 56 55 54 54 53 52 51 50 49 47 46 47 47 44 42 40 40 40 42 41 39 39
44 49 55 60 66 69 70 73 74 74 73 72 71 65 64 64 64 63 63 61 57 56 57 57 56 56 54 52 50 48 47 45 47 46 43 42 40 40 41 41 40 42 37
37 44 50 57 62 66 70 74 75 76 76 75 72 66 65 69 64 65 67 67 64 63 61 60 59 58 55 52 50 48 48 43 44 46 42 40 40 39 41 42 43 42 40
34 41 48 54 59 66 70 72 73 75 76 76 74 70 72 75 72 73 74 69 67 68 65 64 62 58 54 52 50 50 47 43 42 46 43 41 41 39 41 42 42 43 41
34 40 47 54 59 64 68 71 74 76 77 76 75 74 74 81 81 75 72 67 69 71 66 67 64 58 53 52 52 51 49 42 43 47 45 43 42 42 43 43 43 43 42
38 42 47 51 57 64 68 71 74 75 76 78 75 78 81 82 79 76 76 71 71 70 68 68 64 59 53 52 51 53 52 47 47 47 48 47 43 44 47 47 45 45 45
38 40 43 47 53 59 64 70 75 78 79 79 79 79 80 80 80 80 76 71 70 70 67 63 63 59 55 52 50 51 52 51 51 49 50 50 48 45 47 49 47 46 44
40 43 45 48 52 57 62 66 69 71 73 73 74 75 75 75 74 72 72 72 68 67 66 65 63 61 57 52 52 53 53 50 52 53 53 54 53 50 50 47 45 46 45
Wind_Direction_850mb
224 225 230 233 235 235 230 225 220 227 224 226 229 227 231 232 227 225 228 218 213 221 233 254 273 292 313 321 325 326 328 330 333 340 344 345 348 347 348 349 351 350 351
224 227 231 234 235 232 226 215 214 215 217 222 225 224 230 217 219 215 206 201 204 222 241 264 291 309 316 322 328 331 336 340 342 343 346 347 348 347 347 346 348 348 349
229 231 231 228 224 219 209 203 205 208 209 211 220 217 205 202 198 193 192 203 216 234 265 285 299 309 321 330 336 343 344 344 342 342 344 346 347 348 345 345 346 346 349
225 221 215 211 206 201 195 199 202 201 207 210 203 197 193 188 187 191 195 214 236 257 276 293 305 315 325 336 345 346 343 341 341 341 342 343 345 345 342 341 342 345 346
214 209 202 198 193 191 195 197 195 204 205 198 194 188 186 185 189 196 211 229 246 264 280 294 301 307 321 338 339 337 339 340 339 338 340 340 341 340 341 340 340 340 343
212 206 199 195 191 193 195 197 198 198 193 192 188 188 186 190 194 205 221 238 252 270 284 293 289 299 313 324 329 332 334 337 337 336 335 334 336 337 335 335 337 339 340
210 207 203 199 196 195 196 197 196 193 190 188 187 189 192 197 202 213 227 240 263 276 279 270 274 297 308 320 329 330 335 337 336 335 329 332 330 331 328 329 332 332 332
210 207 205 202 199 197 197 195 193 192 191 191 191 192 196 203 214 221 238 257 265 264 255 250 267 291 315 324 329 331 335 338 336 334 330 329 326 325 321 320 327 324 327
210 207 204 201 198 196 194 193 193 193 194 195 194 198 203 211 216 227 254 261 255 246 237 244 270 301 314 319 326 329 334 335 335 335 335 331 331 330 326 320 322 322 323
211 207 203 200 199 199 198 196 197 196 197 198 200 201 207 212 228 246 256 252 246 237 241 258 278 297 309 321 325 327 333 334 332 334 331 332 328 323 319 316 316 315 318
213 207 205 203 203 202 201 201 199 198 198 201 204 208 212 232 236 254 247 244 241 245 257 276 294 305 312 318 319 323 327 331 331 328 327 327 328 318 314 311 310 305 306
213 209 206 204 203 202 203 201 200 201 203 204 207 211 235 230 262 247 242 241 247 256 264 277 290 300 306 308 311 319 322 324 324 327 329 328 327 320 312 308 308 304 302
213 210 207 205 205 204 204 205 205 204 206 207 214 233 229 257 251 242 241 243 248 253 260 272 283 288 296 302 306 309 314 317 321 324 325 325 322 319 313 306 303 302 297
215 211 208 207 206 207 207 209 210 209 206 216 231 231 242 256 242 241 243 245 248 254 261 269 278 286 291 297 303 306 308 311 315 317 320 319 316 312 307 303 300 302 297
214 212 209 209 210 210 210 212 211 207 231 243 229 232 254 248 244 243 246 248 253 259 265 270 276 284 288 292 295 298 301 305 308 312 314 313 310 309 308 304 299 297 293
214 212 212 213 213 213 214 210 208 237 235 225 231 245 251 244 240 245 249 251 256 262 267 272 278 282 286 291 295 297 299 304 308 312 312 311 309 308 307 306 302 298 293
219 219 218 219 219 218 219 215 245 231 223 233 227 245 247 248 246 249 252 255 259 264 267 271 276 282 287 291 294 297 300 303 306 309 311 310 307 306 306 305 303 298 294
220 223 226 228 227 225 227 234 227 225 231 225 246 248 246 247 248 250 253 256 261 265 267 272 278 282 286 290 292 292 295 300 303 306 306 305 304 303 305 302 301 297 296
234 234 233 234 232 231 233 233 232 233 232 236 239 240 249 250 252 253 254 260 263 265 269 271 275 280 283 285 287 289 294 297 299 302 304 304 302 302 302 301 300 296 294
244 244 244 242 239 238 237 235 235 236 237 238 240 244 249 251 253 257 260 264 265 268 269 272 274 276 278 280 282 285 288 294 298 300 300 299 299 301 300 300 297 295 292
253 252 248 244 242 241 240 240 242 243 244 246 248 250 252 253 257 261 262 263 266 267 267 269 270 272 274 276 278 282 286 290 292 291 292 292 294 296 296 296 294 292 293
259 258 257 255 254 251 250 249 249 250 251 252 253 253 252 253 254 257 259 262 264 264 263 266 267 268 269 270 274 279 282 287 287 286 289 290 291 293 293 293 292 292 294
267 260 258 259 259 258 257 257 257 257 258 259 259 257 256 257 259 259 260 261 261 262 263 265 266 266 266 269 275 278 282 284 281 281 284 284 286 288 288 288 289 290 291
284 276 268 263 261 260 260 261 261 261 261 261 260 261 261 260 261 264 263 260 259 261 263 264 266 265 263 269 273 277 281 281 277 278 281 283 284 285 286 287 287 287 287
295 287 280 274 268 266 265 265 266 267 268 268 267 265 264 264 264 263 262 260 262 263 262 263 263 264 266 270 270 273 275 276 278 278 279 281 282 281 282 283 284 284 284
300 296 290 282 275 271 268 266 266 266 266 267 267 267 266 265 264 264 263 263 262 260 261 260 259 262 266 268 272 272 272 275 277 277 278 278 279 280 278 279 280 281 282